Location: Liberec
(50.7830°N, 15.0500°E)
Time: 05:12:42
(UTC+02:00)

ISS - Pass Details

Date: 18 May 2021
Orbit: 417 x 422 km, 51.6° (Epoch: 13 June)

Event Time Altitude Azimuth Distance (km) Brightness Sun altitude
Rises 22:53:02 0° 261° (W) 2,362 0.3 -14.4°
Reaches altitude 10° 22:55:08 10° 262° (W) 1,500 -0.7 -14.6°
Maximum altitude 22:58:30 83° 351° (N) 429 -3.7 -14.9°
Drops below altitude 10° 23:01:53 10° 79° (E) 1,506 -1.1 -15.1°
Enters shadow 23:03:21 - 80° (E) 2,108 -0.4 -15.2°
